[[{"header":{"parameterUnit":"m.s-1","parameterCategory":1,"la1":30.2991,"la2":30.254,"lo1":-89.0895,"lo2":-89.0444,"dy":0.0017,"dx":0.0017,"nx":28,"ny":28,"refTime":"2024-02-28T09:00:00:Z","depth":0,"parameterNumber":2,"parameterNumberName":"U-component_of_WINDS"},"data":[0,0,0,0,0,0,0,0,0,0,0,0,0,0,0,0,0,0,0,0,0,0,0,0,0,0,0,0,0,0,0,0,0,0,0,0,0,0,0,0,0,0,0,0,0,0,0,0,0,0,0,0,0,0,0,0,0,0,-4.9077,-4.9078,0,-4.9158,-4.9159,-4.916,-4.9065,-4.9062,-4.9058,-4.9055,-4.9138,-4.9143,-4.9148,0,0,0,0,0,0,0,0,0,0,0,0,0,-4.884,-4.8845,-4.9077,-4.9078,-4.9079,-4.9158,-4.9159,-4.916,-4.9066,-4.9062,-4.9057,-4.9053,-4.9136,-4.9142,-4.9149,0,0,0,0,0,0,0,0,0,0,0,0,0,-4.8934,-4.8846,-4.9077,-4.9041,-4.9039,-4.9158,-4.9159,-4.916,-4.9067,-4.9061,-4.9056,-4.9051,-4.9134,-4.9142,-4.915,-4.9307,0,0,-4.9175,-4.9179,0,0,0,0,0,0,0,0,-4.8929,-4.8943,-4.9046,-4.9044,-4.9042,-4.9096,-4.9105,-4.9209,-4.9068,-4.9056,-4.9055,-4.9049,-4.9128,-4.9136,-4.9163,-4.9311,-4.9314,-4.9176,-4.9181,-4.9184,-4.9187,0,0,0,0,0,0,0,-4.8922,-4.8939,-4.9109,-4.9047,-4.9045,-4.9021,-4.9029,-4.9125,-4.9121,-4.9057,-4.905,-4.9061,-4.9126,-4.9156,-4.9164,-4.9315,-4.9175,-4.9183,-4.9188,-4.9191,-4.9595,-4.9601,0,0,0,0,0,0,-4.892,-4.8934,-4.9106,-4.9111,-4.8971,-4.903,-4.9038,-4.9084,-4.912,-4.912,-4.9066,-4.9056,-4.9144,-4.9155,-4.9167,-4.9354,-4.9184,-4.9192,-4.9197,-4.959,-4.9597,-4.9603,0,0,0,0,0,0,-4.8915,-4.8936,-4.9103,-4.9021,-4.904,-4.904,-4.9092,-4.9088,-4.9118,-4.9126,-4.9125,-4.9097,-4.914,-4.9155,-4.9273,-4.9355,-4.9196,-4.9203,-4.9583,-4.9592,-4.96,-4.9728,0,0,0,0,0,0,-4.8909,-4.8935,-4.8995,-4.9023,-4.9045,-4.9208,-4.9097,-4.9094,-4.9132,-4.9121,-4.9155,-4.9155,-4.9137,-4.9261,-4.9281,-4.9364,-4.921,-4.9575,-4.9587,-4.9597,-4.9717,-4.974,-4.976,0,0,0,0,0,-4.8901,-4.9028,-4.8999,-4.902,-4.912,-4.9213,-4.9226,-4.9202,-4.9139,-4.92,-4.9205,-4.9154,-4.9343,-4.9274,-4.9295,-4.9382,-4.957,-4.9584,-4.9596,-4.9707,-4.9735,-4.976,0,0,0,0,0,0,-4.901,-4.9031,-4.8999,-4.9139,-4.9175,-4.9197,-4.9272,-4.9233,-4.9288,-4.9275,-4.9244,-4.9252,-4.9377,-4.9391,-4.9314,-4.9536,-4.9446,-4.9464,-4.9523,-4.955,-4.9571,-4.9566,-4.9216,0,0,0,0,0,-4.905,-4.9124,-4.9138,-4.926,-4.928,-4.9273,-4.9313,-4.9292,-4.9328,-4.9343,-4.9356,-4.9393,-4.946,-4.9505,-4.9568,-4.9717,-4.9724,-4.9787,-4.9809,-4.9827,-4.9844,-4.9924,-4.9953,-4.9646,-4.9646,-4.9645,0,0,-4.9134,-4.9155,-4.9203,-4.9283,-4.9308,-4.9386,-4.9287,-4.9373,-4.943,-4.9355,-4.9468,-4.9479,-4.9518,-4.9652,-4.9712,-4.9667,-4.9929,-4.9844,-4.9858,-4.9865,-4.994,-4.9969,-4.9995,-4.9655,-4.9653,-4.9652,0,0,-4.9327,-4.935,-4.9454,-4.9482,-4.9522,-4.9516,-4.9541,-4.957,-4.9574,-4.9686,-4.9632,-4.9699,-4.9816,-4.9846,-4.9876,-5.008,-5.0036,-5.0101,-5.0216,-5.0295,-5.0319,-5.034,-5.0414,-5.0441,-5.0117,-5.0118,-5.0118,0,-4.9427,-4.9541,-4.9513,-4.9603,-4.964,-4.9576,-4.9681,-4.9709,-4.9768,-4.9794,-4.9743,-4.9888,-4.991,-5.0051,-5.01,-5.0127,-5.0155,-5.0098,-5.0318,-5.0339,-5.0358,-5.0428,-5.0456,-5.0125,-5.0124,-5.0124,-5.0123,0,-4.9662,-4.9743,-4.9822,-4.988,-4.9926,-5.0023,-5.0009,-5.0058,-5.0033,-5.0033,-5.0147,-5.0171,-5.0237,-5.0268,-5.0244,-5.0406,-5.0377,-5.0323,-5.0232,-5.0396,-5.0461,-5.0488,-5.0136,-5.0134,-5.0131,-5.0129,0,0,-4.9928,-4.9969,-4.9999,-5.0024,-5.0063,-5.0125,-5.0219,-5.0283,-5.0327,-5.0368,-5.0447,-5.0547,-5.0497,-5.0531,-5.051,-5.0579,-5.074,-5.0516,-5.0516,-5.0558,-5.092,-5.0962,-5.0993,-5.071,-5.0715,-5.0719,-5.0917,0,-5.0122,-5.0286,-5.0263,-5.0421,-5.0495,-5.0435,-5.0517,-5.0549,-5.0551,-5.0614,-5.0616,-5.0688,-5.0615,-5.0636,-5.0701,-5.0707,-5.0812,-5.0692,-5.0783,-5.0787,-5.0777,-5.1027,-5.1072,-5.1258,-5.0942,-5.0947,-5.095,0,-5.0372,-5.0423,-5.0589,-5.0616,-5.0646,-5.072,-5.0778,-5.0838,-5.0874,-5.087,-5.0909,-5.0875,-5.0969,-5.0876,-5.1005,-5.0924,-5.0959,-5.0967,-5.0974,-5.0983,-5.088,-5.1044,-5.1317,-5.1345,-5.0989,-5.0986,-5.0983,0,-5.055,-5.0661,-5.0774,-5.0798,-5.0832,-5.0886,-5.0903,-5.0933,-5.0973,-5.1023,-5.1049,-5.1109,-5.1143,-5.119,-5.1173,-5.1106,-5.1306,-5.1211,-5.1306,-5.1307,-5.1352,-5.135,-5.1636,-5.1373,-5.1373,-5.1372,-5.1372,0,-5.0771,-5.0875,-5.0855,-5.0925,-5.1039,-5.1011,-5.1125,-5.1134,-5.1161,-5.1232,-5.1182,-5.1249,-5.1222,-5.1287,-5.1274,-5.1384,-5.1399,-5.1399,-5.1394,-5.1404,-5.1405,-5.1428,-5.1416,-5.138,-5.1378,-5.1377,-5.1375,0,-5.0991,-5.0981,-5.1101,-5.1124,-5.1132,-5.1215,-5.1234,-5.13,-5.1297,-5.1387,-5.1407,-5.1403,-5.1477,-5.1464,-5.1546,-5.1537,-5.1675,-5.1654,-5.1663,-5.1659,-5.1755,-5.1747,-5.2067,-5.2108,-5.1818,-5.1821,-5.1823,0,-5.1133,-5.1212,-5.1243,-5.1286,-5.1307,-5.1378,-5.1419,-5.1394,-5.1439,-5.1485,-5.1545,-5.1615,-5.1669,-5.1791,-5.1795,-5.1858,-5.1838,-5.1946,-5.1848,-5.1855,-5.1841,-5.1838,-5.1846,-5.1967,-5.197,-5.1973,-5.1975,0,-5.1387,-5.1378,-5.1439,-5.15,-5.155,-5.1596,-5.1637,-5.1675,-5.1653,-5.1706,-5.1781,-5.1824,-5.1907,-5.1977,-5.2035,-5.2052,-5.2011,-5.2006,-5.2031,-5.2043,-5.2046,-5.2046,-5.1718,-5.1999,-5.1996,-5.1995,-5.1993,-5.1992,-5.1573,-5.164,-5.1673,-5.1743,-5.1771,-5.181,-5.1873,-5.1878,-5.1941,-5.2007,-5.1988,-5.2074,-5.2106,-5.218,-5.2203,-5.227,-5.223,-5.2266,-5.2276,-5.2286,-5.2298,-5.2034,-5.228,-5.2279,-5.2279,-5.2278,-5.2277,0,-5.1826,-5.1843,-5.1908,-5.1967,-5.2022,-5.1977,-5.202,-5.2069,-5.2145,-5.2179,-5.2234,-5.232,-5.2388,-5.2397,-5.2461,-5.2513,-5.2495,-5.253,-5.2527,-5.2532,-5.233,-5.2302,-5.2543,-5.2543,-5.2543,-5.2543,-5.2543,-5.2543,-5.1963,-5.2075,-5.207,-5.2195,-5.2211,-5.2295,-5.2324,-5.2359,-5.2387,-5.2486,-5.2542,-5.2547,-5.2572,-5.2637,-5.2697,-5.2697,-5.2724,-5.2767,-5.2761,-5.2572,-5.2546,-5.2521,-5.2494,-5.2772,-5.2773,-5.2957,-5.2959,-5.296]},{"header":{"parameterUnit":"m.s-1","parameterCategory":1,"la1":30.2991,"la2":30.254,"lo1":-89.0895,"lo2":-89.0444,"dy":0.0017,"dx":0.0017,"nx":28,"ny":28,"refTime":"2024-02-28T09:00:00:Z","depth":0,"parameterNumber":3,"parameterNumberName":"V-component_of_WINDS"},"data":[0,0,0,0,0,0,0,0,0,0,0,0,0,0,0,0,0,0,0,0,0,0,0,0,0,0,0,0,0,0,0,0,0,0,0,0,0,0,0,0,0,0,0,0,0,0,0,0,0,0,0,0,0,0,0,0,0,0,-7.1812,-7.1813,0,-7.1899,-7.19,-7.1901,-7.1813,-7.181,-7.1806,-7.1803,-7.1886,-7.1892,-7.1897,0,0,0,0,0,0,0,0,0,0,0,0,0,-7.1566,-7.1571,-7.1812,-7.1813,-7.1814,-7.1898,-7.19,-7.1901,-7.1814,-7.1809,-7.1805,-7.1801,-7.1885,-7.1891,-7.1897,0,0,0,0,0,0,0,0,0,0,0,0,0,-7.1665,-7.1572,-7.1812,-7.1781,-7.1779,-7.1898,-7.19,-7.1901,-7.1814,-7.1809,-7.1804,-7.1799,-7.1882,-7.189,-7.1898,-7.2051,0,0,-7.1923,-7.1927,0,0,0,0,0,0,0,0,-7.1659,-7.1674,-7.1785,-7.1783,-7.1782,-7.184,-7.1843,-7.1951,-7.1816,-7.1801,-7.1803,-7.1797,-7.1875,-7.1883,-7.191,-7.2054,-7.2058,-7.1924,-7.1929,-7.1932,-7.1934,0,0,0,0,0,0,0,-7.1652,-7.1669,-7.1846,-7.1786,-7.1784,-7.1761,-7.1769,-7.1863,-7.1865,-7.1802,-7.1796,-7.1807,-7.1873,-7.1903,-7.1912,-7.2059,-7.1924,-7.1931,-7.1936,-7.1939,-7.2331,-7.2336,0,0,0,0,0,0,-7.165,-7.1664,-7.1843,-7.1849,-7.1707,-7.177,-7.1779,-7.1826,-7.1864,-7.1865,-7.1812,-7.1803,-7.1891,-7.1902,-7.1914,-7.2095,-7.1932,-7.194,-7.1944,-7.2326,-7.2332,-7.2338,0,0,0,0,0,0,-7.1645,-7.1666,-7.184,-7.1755,-7.1775,-7.1779,-7.1833,-7.1831,-7.1861,-7.1872,-7.1871,-7.1842,-7.1888,-7.1903,-7.2017,-7.2096,-7.1943,-7.1951,-7.2319,-7.2328,-7.2335,-7.2457,0,0,0,0,0,0,-7.1638,-7.1665,-7.1725,-7.1757,-7.178,-7.1944,-7.1838,-7.1836,-7.1875,-7.1865,-7.19,-7.1901,-7.1885,-7.2006,-7.2026,-7.2105,-7.1957,-7.2312,-7.2323,-7.2333,-7.2446,-7.2468,-7.2488,0,0,0,0,0,-7.163,-7.1755,-7.1728,-7.175,-7.1855,-7.1949,-7.1962,-7.1942,-7.1882,-7.1941,-7.1948,-7.19,-7.2084,-7.2018,-7.204,-7.2122,-7.2307,-7.232,-7.2332,-7.2437,-7.2464,-7.2487,0,0,0,0,0,0,-7.173,-7.1758,-7.1729,-7.1869,-7.1907,-7.1934,-7.2007,-7.1972,-7.2027,-7.2015,-7.1986,-7.1995,-7.2116,-7.213,-7.2056,-7.2271,-7.2186,-7.2203,-7.2258,-7.2284,-7.2304,-7.2298,-7.1964,0,0,0,0,0,-7.1768,-7.1844,-7.1864,-7.1985,-7.2006,-7.2004,-7.2044,-7.2025,-7.2063,-7.2079,-7.2094,-7.2131,-7.2197,-7.2241,-7.2302,-7.2447,-7.2453,-7.2514,-7.2535,-7.2552,-7.2568,-7.2644,-7.2672,-7.2379,-7.2379,-7.2379,0,0,-7.1848,-7.1873,-7.1922,-7.2006,-7.2033,-7.2111,-7.2018,-7.2103,-7.216,-7.2091,-7.2201,-7.2213,-7.2252,-7.2382,-7.244,-7.2398,-7.265,-7.2568,-7.2582,-7.2588,-7.266,-7.2688,-7.2712,-7.2388,-7.2386,-7.2385,0,0,-7.2034,-7.2061,-7.2164,-7.2194,-7.2238,-7.2235,-7.226,-7.2292,-7.2298,-7.2408,-7.2358,-7.2423,-7.2538,-7.2568,-7.2598,-7.2794,-7.2752,-7.2815,-7.2924,-7.2999,-7.3022,-7.3042,-7.3112,-7.3137,-7.283,-7.283,-7.283,0,-7.2127,-7.2244,-7.2222,-7.2312,-7.2349,-7.2291,-7.2395,-7.2424,-7.2485,-7.2511,-7.2463,-7.2606,-7.2628,-7.2764,-7.2812,-7.2838,-7.2865,-7.2811,-7.3021,-7.3041,-7.3059,-7.3125,-7.3151,-7.2837,-7.2837,-7.2836,-7.2835,0,-7.2356,-7.2437,-7.2515,-7.2578,-7.2624,-7.272,-7.2711,-7.276,-7.2737,-7.2739,-7.2851,-7.2875,-7.2941,-7.2971,-7.2949,-7.3104,-7.3077,-7.3025,-7.2939,-7.3095,-7.3156,-7.3181,-7.2848,-7.2845,-7.2843,-7.2841,0,0,-7.2608,-7.2656,-7.2686,-7.2713,-7.2756,-7.2817,-7.291,-7.2975,-7.3018,-7.3061,-7.3137,-7.3235,-7.3188,-7.3222,-7.3203,-7.3269,-7.3422,-7.3209,-7.3209,-7.3247,-7.3593,-7.3632,-7.3661,-7.3394,-7.3398,-7.3402,-7.3589,0,-7.2794,-7.2958,-7.294,-7.3095,-7.3169,-7.3115,-7.3195,-7.3229,-7.3234,-7.3295,-7.3298,-7.3369,-7.3301,-7.3321,-7.3384,-7.339,-7.3491,-7.3376,-7.3463,-7.3466,-7.3455,-7.3693,-7.3735,-7.3911,-7.3613,-7.3617,-7.362,0,-7.3034,-7.3088,-7.3251,-7.3283,-7.3313,-7.3386,-7.3444,-7.3504,-7.3541,-7.3539,-7.3578,-7.3546,-7.3637,-7.3549,-7.3673,-7.3596,-7.363,-7.3638,-7.3644,-7.3651,-7.3553,-7.3707,-7.3966,-7.3993,-7.3658,-7.3655,-7.3652,0,-7.3202,-7.3314,-7.3426,-7.3451,-7.349,-7.3543,-7.3561,-7.3593,-7.3634,-7.3683,-7.3709,-7.3768,-7.3801,-7.3846,-7.3831,-7.3768,-7.3958,-7.3869,-7.3958,-7.3959,-7.4001,-7.3999,-7.4269,-7.4023,-7.4023,-7.4022,-7.4022,0,-7.3412,-7.3514,-7.3502,-7.3571,-7.3682,-7.366,-7.377,-7.3782,-7.3811,-7.3879,-7.3835,-7.39,-7.3876,-7.3939,-7.3927,-7.4031,-7.4046,-7.4046,-7.4042,-7.405,-7.4051,-7.4073,-7.406,-7.4029,-7.4028,-7.4026,-7.4025,0,-7.3618,-7.3614,-7.3733,-7.3761,-7.377,-7.3851,-7.3874,-7.3937,-7.3938,-7.4025,-7.4044,-7.4044,-7.4116,-7.4105,-7.4184,-7.4176,-7.4306,-7.4287,-7.4295,-7.429,-7.438,-7.4372,-7.4675,-7.4713,-7.4442,-7.4445,-7.4447,0,-7.3753,-7.383,-7.3867,-7.3911,-7.3933,-7.4004,-7.4045,-7.4025,-7.4069,-7.4117,-7.4175,-7.4243,-7.4296,-7.4413,-7.4418,-7.4478,-7.446,-7.4562,-7.4469,-7.4475,-7.4462,-7.4457,-7.4465,-7.4581,-7.4584,-7.4586,-7.4588,0,-7.3993,-7.3987,-7.4049,-7.4111,-7.4162,-7.4208,-7.4251,-7.4288,-7.4272,-7.4324,-7.4397,-7.4439,-7.452,-7.4588,-7.4644,-7.466,-7.4622,-7.4618,-7.4641,-7.4651,-7.4652,-7.4653,-7.4345,-7.4611,-7.4608,-7.4607,-7.4606,-7.4605,-7.4167,-7.4233,-7.4269,-7.4339,-7.4369,-7.441,-7.4471,-7.448,-7.4541,-7.4607,-7.4591,-7.4674,-7.4707,-7.4779,-7.4802,-7.4865,-7.4827,-7.4862,-7.487,-7.4879,-7.489,-7.4642,-7.4875,-7.4874,-7.4873,-7.4873,-7.4872,0,-7.4404,-7.4425,-7.449,-7.4551,-7.4606,-7.4566,-7.4611,-7.4659,-7.4733,-7.4768,-7.4822,-7.4906,-7.4971,-7.4982,-7.5043,-7.5092,-7.5075,-7.5109,-7.5105,-7.5109,-7.492,-7.4894,-7.5121,-7.5121,-7.5121,-7.5121,-7.5121,-7.5121,-7.4534,-7.4644,-7.4642,-7.4765,-7.4784,-7.4867,-7.4896,-7.4932,-7.496,-7.5056,-7.5111,-7.5118,-7.5143,-7.5206,-7.5263,-7.5264,-7.5289,-7.5329,-7.5324,-7.5147,-7.5122,-7.5099,-7.5074,-7.5335,-7.5335,-7.5507,-7.5508,-7.551]}]]